VK4CWL-13 Weather Reports


Display with metric or nautical units.
time (UTC)temp
F
wind
direction
speed
MPH
gust
MPH
rain 1hr
in
rain 24hr
in
rain mn
in
humidity
%
barometer
mb
20220525140555 60 135 4.0 6.0 0.00 0.00 0.00 86 1017.6
20220525135552 60 135 3.0 6.0 0.00 0.00 0.00 86 1017.6
20220525134550 60 135 5.0 6.0 0.00 0.00 0.00 85 1017.8
20220525133547 60 146 4.0 5.0 0.00 0.00 0.00 85 1017.8
20220525132544 61 135 2.0 4.0 0.00 0.00 0.00 84 1017.9
20220525131541 61 135 3.0 4.0 0.00 0.00 0.00 84 1017.9
20220525130538 61 135 3.0 3.0 0.00 0.00 0.00 84 1018.0
20220525125536 61 135 4.0 4.0 0.00 0.00 0.00 84 1017.9
20220525124533 61 135 4.0 5.0 0.00 0.00 0.00 84 1018.0
20220525123530 61 146 5.0 5.0 0.00 0.00 0.00 83 1018.0
20220525122528 61 135 3.0 4.0 0.00 0.00 0.00 83 1018.0
20220525121525 61 135 4.0 6.0 0.00 0.00 0.00 83 1018.0
20220525120522 62 135 3.0 4.0 0.00 0.00 0.00 82 1018.0
20220525114517 62 135 3.0 3.0 0.00 0.00 0.00 81 1018.0
20220525113514 62 135 2.0 2.0 0.00 0.00 0.00 81 1018.1
20220525112512 63 146 2.0 3.0 0.00 0.00 0.00 80 1018.2
20220525111509 63 135 2.0 3.0 0.00 0.00 0.00 79 1018.2
20220525110506 63 180 1.0 3.0 0.00 0.00 0.00 79 1018.1
20220525105556 64 157 0.0 2.0 0.00 0.00 0.00 79 1018.1
20220525105503 64 157 0.0 2.0 0.00 0.00 0.00 79 1018.1
20220525104501 64 157 3.0 4.0 0.00 0.00 0.00 78 1018.0
20220525103458 64 135 3.0 4.0 0.00 0.00 0.00 78 1018.0
20220525102455 65 135 3.0 4.0 0.00 0.00 0.00 77 1018.0
20220525101452 65 135 3.0 3.0 0.00 0.00 0.00 76 1017.9
20220525100450 65 146 2.0 2.0 0.00 0.00 0.00 75 1017.8
20220525095447 66 135 2.0 4.0 0.00 0.00 0.00 75 1017.6
20220525093441 67 101 2.0 4.0 0.00 0.00 0.00 73 1017.7
20220525092439 67 90 4.0 6.0 0.00 0.00 0.00 74 1017.6
20220525091438 67 101 4.0 5.0 0.00 0.00 0.00 72 1017.5
20220525090433 67 135 1.0 1.0 0.00 0.00 0.00 71 1017.5
20220525083425 68 135 3.0 3.0 0.00 0.00 0.00 70 1017.2
20220525082423 68 180 2.0 3.0 0.00 0.00 0.00 69 1017.2
20220525081420 68 135 0.0 2.0 0.00 0.00 0.00 68 1016.8
20220525080417 69 135 0.0 1.0 0.00 0.00 0.00 67 1016.6
20220525073409 70 123 1.0 2.0 0.00 0.00 0.00 65 1015.8
20220525072459 71 123 1.0 2.0 0.00 0.00 0.00 64 1015.8
20220525072408 71 123 1.0 2.0 0.00 0.00 0.00 64 1015.8
20220525071405 71 135 1.0 3.0 0.00 0.00 0.00 63 1015.8
20220525070401 72 90 4.0 5.0 0.00 0.00 0.00 63 1015.4
20220525065400 72 135 3.0 5.0 0.00 0.00 0.00 61 1016.0
20220525064356 73 180 1.0 3.0 0.00 0.00 0.00 60 1015.9
20220525063354 73 135 3.0 4.0 0.00 0.00 0.00 61 1015.8
20220525062350 73 135 3.0 6.0 0.00 0.00 0.00 61 1015.9
20220525061349 73 135 0.0 3.0 0.00 0.00 0.00 61 1015.9
20220525060346 73 180 2.0 4.0 0.00 0.00 0.00 61 1015.8
20220525055344 73 146 2.0 4.0 0.00 0.00 0.00 60 1015.7
20220525054341 73 101 3.0 4.0 0.00 0.00 0.00 58 1015.4
20220525053336 74 112 3.0 3.0 0.00 0.00 0.00 59 1015.5
20220525052336 74 135 0.0 6.0 0.00 0.00 0.00 58 1015.6
20220525051333 75 90 5.0 7.0 0.00 0.00 0.00 57 1015.5
20220525050330 74 135 3.0 4.0 0.00 0.00 0.00 58 1015.7
20220525045327 74 90 0.0 2.0 0.00 0.00 0.00 58 1015.6
20220525044324 74 112 7.0 7.0 0.00 0.00 0.00 58 1015.5
20220525043322 74 180 0.0 6.0 0.00 0.00 0.00 59 1015.7
20220525042318 73 90 5.0 7.0 0.00 0.00 0.00 59 1015.7
20220525041316 73 90 4.0 6.0 0.00 0.00 0.00 58 1015.5
20220525040313 73 78 6.0 10.0 0.00 0.00 0.00 58 1015.4
20220525032303 73 90 5.0 8.0 0.00 0.00 0.00 60 1016.3
20220525031300 74 135 4.0 9.0 0.00 0.00 0.00 60 1016.6
20220525025255 73 135 3.0 7.0 0.00 0.00 0.00 60 1017.2
20220525024252 73 135 6.0 8.0 0.00 0.00 0.00 61 1017.4
20220525023249 73 135 5.0 9.0 0.00 0.00 0.00 60 1017.5
20220525022247 73 135 6.0 9.0 0.00 0.00 0.00 61 1017.6
20220525020241 73 135 6.0 10.0 0.00 0.00 0.00 63 1018.0
20220525015239 72 157 4.0 5.0 0.00 0.00 0.00 64 1018.2
20220525013233 72 135 6.0 9.0 0.00 0.00 0.00 64 1018.7
20220525012230 72 112 3.0 13.0 0.00 0.00 0.00 63 1018.8
20220525011227 72 135 7.0 8.0 0.00 0.00 0.00 66 1019.0
20220525010225 71 135 4.0 8.0 0.00 0.00 0.00 66 1019.3
20220525005222 70 157 6.0 6.0 0.00 0.00 0.00 67 1019.4
20220525004219 70 112 6.0 8.0 0.00 0.00 0.00 67 1019.6
20220525002214 70 135 7.0 11.0 0.00 0.00 0.00 68 1020.0
20220525001211 70 135 5.0 11.0 0.00 0.00 0.00 69 1020.0
20220525000209 69 146 5.0 9.0 0.00 0.00 0.00 70 1020.2
20220524233200 67 135 11.0 13.0 0.00 0.00 0.00 73 1020.2
20220524232158 67 135 11.0 13.0 0.00 0.00 0.00 74 1020.2
20220524231155 66 112 12.0 13.0 0.00 0.00 0.00 75 1020.2
20220524230152 65 135 8.0 13.0 0.00 0.00 0.00 75 1020.4
20220524225150 65 135 9.0 11.0 0.00 0.00 0.00 77 1020.6
20220524224147 65 135 7.0 12.0 0.00 0.00 0.00 79 1020.7
20220524223144 64 135 10.0 12.0 0.00 0.00 0.00 80 1020.6
20220524222142 63 157 6.0 13.0 0.00 0.00 0.00 81 1020.7
20220524221139 63 90 7.0 12.0 0.00 0.00 0.00 82 1020.4
20220524220136 62 135 11.0 12.0 0.00 0.00 0.00 83 1020.5
20220524214131 61 135 8.0 10.0 0.00 0.00 0.00 85 1020.5
20220524212124 60 157 4.0 8.0 0.00 0.00 0.00 88 1020.7
20220524211123 60 180 5.0 6.0 0.00 0.00 0.00 89 1020.5
20220524210120 59 135 6.0 7.0 0.00 0.00 0.00 89 1020.3
20220524204113 59 135 7.0 7.0 0.00 0.00 0.00 89 1020.2
20220524203110 59 157 4.0 7.0 0.00 0.00 0.00 89 1020.2
20220524202108 59 135 4.0 5.0 0.00 0.00 0.00 88 1020.0
20220524201105 59 135 2.0 4.0 0.00 0.00 0.00 88 1019.9
20220524200102 59 135 2.0 4.0 0.00 0.00 0.00 88 1019.8
20220524195059 59 157 4.0 5.0 0.00 0.00 0.00 87 1019.9
20220524194057 60 135 3.0 7.0 0.00 0.00 0.00 87 1019.6
20220524193054 60 157 4.0 6.0 0.00 0.00 0.00 87 1019.4
20220524192051 60 135 3.0 5.0 0.00 0.00 0.00 86 1019.3
20220524191048 60 135 3.0 4.0 0.00 0.00 0.00 86 1019.1
20220524190046 60 146 4.0 5.0 0.00 0.00 0.00 86 1019.0
20220524185043 60 135 1.0 4.0 0.00 0.00 0.00 86 1018.9
20220524184040 61 112 3.0 6.0 0.00 0.00 0.00 86 1018.8
20220524183037 61 135 3.0 6.0 0.00 0.00 0.00 86 1018.8
20220524182035 61 135 4.0 5.0 0.00 0.00 0.00 85 1018.7
20220524181032 61 135 4.0 5.0 0.00 0.00 0.00 85 1018.8
20220524180029 61 135 4.0 5.0 0.00 0.00 0.00 85 1018.9
20220524175029 61 135 2.0 5.0 0.00 0.00 0.00 84 1019.1
20220524174024 62 135 3.0 5.0 0.00 0.00 0.00 84 1018.9
20220524173021 62 135 4.0 5.0 0.00 0.00 0.00 84 1018.8
20220524172019 62 135 4.0 6.0 0.00 0.00 0.00 84 1018.8
20220524171016 62 135 5.0 7.0 0.00 0.00 0.00 84 1019.0
20220524170013 62 135 5.0 7.0 0.00 0.00 0.00 83 1019.0
20220524165011 62 112 8.0 8.0 0.00 0.00 0.00 83 1018.9
20220524163006 62 135 4.0 7.0 0.00 0.00 0.00 83 1019.0
20220524162002 62 135 4.0 8.0 0.00 0.00 0.00 83 1019.1
20220524161000 62 112 2.0 8.0 0.00 0.00 0.00 83 1019.1
20220524155957 62 135 6.0 7.0 0.00 0.00 0.00 83 1019.1
20220524154954 62 90 4.0 8.0 0.00 0.00 0.00 83 1019.1
20220524153952 62 123 6.0 7.0 0.00 0.00 0.00 83 1019.3
20220524152950 62 135 4.0 7.0 0.00 0.00 0.00 83 1019.5
20220524151946 63 135 5.0 6.0 0.00 0.00 0.00 82 1019.4
20220524150943 63 135 5.0 5.0 0.00 0.00 0.00 82 1019.6
20220524145940 63 135 4.0 5.0 0.00 0.00 0.00 82 1019.7
20220524144940 63 135 3.0 4.0 0.00 0.00 0.00 82 1019.7
20220524143935 63 135 1.0 4.0 0.00 0.00 0.00 81 1019.7
20220524142934 63 135 2.0 3.0 0.00 0.00 0.00 81 1019.7
20220524141932 63 135 2.0 2.0 0.00 0.00 0.00 80 1019.8